Volver al catálogo

STARLINK-31981

ActivoComunicacionesVLEO
NORAD 60035·PAYLOAD·🇺🇸 United States

Lanzado Jun 8, 2024 desde Cape Canaveral Space Force Station

Loading…

Próximos Pases (próximas 24 horas)

TLE

ActualizadoSource: CelesTrak SupGP

Época: Sep 14, 2026, 22:38 UTC

1 60035C 24111V   26257.94354167  .00055844  00000+0  16503-2 0  2573
2 60035  53.1566 275.5170 0001117  90.0618 275.9161 15.34355595    10

Sigue STARLINK-31981 en tiempo real con AllMySat

Download on the App Store